| time (UTC) | temp F | wind direction | speed MPH | gust MPH | rain 1hr in | rain 24hr in | rain mn in | humidity % | barometer mb |
| 20260831033022 | 61 | 182 | 0.0 | 0.0 | 0.00 | 0.00 | 0.00 | 75 | 1017.9 |
| 20260831031515 | 62 | 182 | 0.0 | 0.0 | 0.00 | 0.00 | 0.00 | 74 | 1017.9 |
| 20260831030016 | 63 | 182 | 0.0 | 0.0 | 0.00 | 0.00 | 0.00 | 72 | 1017.9 |
| 20260831024515 | 63 | 182 | 0.0 | 0.0 | 0.00 | 0.00 | 0.00 | 74 | 1017.9 |
| 20260831023014 | 64 | 182 | 0.0 | 0.0 | 0.00 | 0.00 | 0.00 | 73 | 1018.0 |
| 20260831021519 | 64 | 182 | 0.0 | 2.0 | 0.00 | 0.00 | 0.00 | 72 | 1018.1 |
| 20260831020014 | 64 | 182 | 0.0 | 3.0 | 0.00 | 0.00 | 0.00 | 71 | 1018.1 |
| 20260831014519 | 64 | 213 | 0.0 | 2.0 | 0.00 | 0.00 | 0.00 | 71 | 1018.1 |
| 20260831013010 | 64 | 212 | 0.0 | 3.0 | 0.00 | 0.00 | 0.00 | 69 | 1018.2 |
| 20260831011512 | 64 | 211 | 0.0 | 2.0 | 0.00 | 0.00 | 0.00 | 70 | 1018.3 |
| 20260831010009 | 64 | 160 | 0.0 | 5.0 | 0.00 | 0.00 | 0.00 | 69 | 1018.5 |
| 20260831004508 | 64 | 176 | 1.0 | 8.0 | 0.00 | 0.00 | 0.00 | 68 | 1018.5 |
| 20260831003007 | 64 | 161 | 0.0 | 5.0 | 0.00 | 0.00 | 0.00 | 69 | 1018.6 |
| 20260831001507 | 65 | 155 | 0.0 | 4.0 | 0.00 | 0.00 | 0.00 | 70 | 1018.7 |
| 20260831000006 | 65 | 213 | 0.0 | 3.0 | 0.00 | 0.00 | 0.00 | 70 | 1019.0 |
| 20260830234510 | 65 | 217 | 0.0 | 5.0 | 0.00 | 0.00 | 0.00 | 68 | 1019.1 |
| 20260830233014 | 65 | 198 | 0.0 | 2.0 | 0.00 | 0.00 | 0.00 | 68 | 1019.1 |
| 20260830231504 | 65 | 188 | 1.0 | 5.0 | 0.00 | 0.00 | 0.00 | 67 | 1019.3 |
| 20260830230007 | 65 | 186 | 3.0 | 6.0 | 0.00 | 0.00 | 0.00 | 67 | 1019.1 |
| 20260830224503 | 65 | 191 | 2.0 | 5.0 | 0.00 | 0.00 | 0.00 | 69 | 1019.3 |
| 20260830223002 | 65 | 185 | 3.0 | 7.0 | 0.00 | 0.00 | 0.00 | 70 | 1019.4 |
| 20260830221506 | 65 | 166 | 2.0 | 8.0 | 0.00 | 0.00 | 0.00 | 70 | 1019.4 |
| 20260830220002 | 65 | 160 | 1.0 | 8.0 | 0.00 | 0.00 | 0.00 | 69 | 1019.6 |
| 20260830214601 | 66 | 188 | 2.0 | 8.0 | 0.00 | 0.00 | 0.00 | 68 | 1019.6 |
| 20260830214500 | 66 | 167 | 2.0 | 8.0 | 0.00 | 0.00 | 0.00 | 69 | 1019.6 |
| 20260830213058 | 66 | 193 | 3.0 | 8.0 | 0.00 | 0.00 | 0.00 | 66 | 1019.7 |
| 20260830211601 | 65 | 184 | 3.0 | 8.0 | 0.00 | 0.00 | 0.00 | 70 | 1019.9 |
| 20260830210057 | 65 | 165 | 3.0 | 7.0 | 0.00 | 0.00 | 0.00 | 69 | 1019.8 |
| 20260830204554 | 65 | 186 | 1.0 | 7.0 | 0.00 | 0.00 | 0.00 | 71 | 1019.7 |
| 20260830203053 | 64 | 194 | 2.0 | 7.0 | 0.00 | 0.00 | 0.00 | 72 | 1019.7 |
| 20260830201552 | 63 | 187 | 2.0 | 9.0 | 0.00 | 0.00 | 0.00 | 72 | 1019.9 |
| 20260830200052 | 64 | 182 | 3.0 | 13.0 | 0.00 | 0.00 | 0.00 | 72 | 1019.8 |
| 20260830194603 | 65 | 184 | 2.0 | 7.0 | 0.00 | 0.01 | 0.00 | 71 | 1019.8 |
| 20260830193101 | 65 | 190 | 2.0 | 10.0 | 0.00 | 0.01 | 0.00 | 70 | 1019.8 |
| 20260830191546 | 63 | 159 | 3.0 | 8.0 | 0.00 | 0.01 | 0.00 | 73 | 1019.9 |
| 20260830190045 | 63 | 191 | 3.0 | 10.0 | 0.00 | 0.01 | 0.00 | 73 | 1020.0 |
| 20260830184643 | 62 | 171 | 2.0 | 8.0 | 0.00 | 0.01 | 0.00 | 74 | 1020.0 |
| 20260830183045 | 62 | 178 | 5.0 | 11.0 | 0.00 | 0.01 | 0.00 | 73 | 1020.1 |
| 20260830181539 | 62 | 158 | 3.0 | 11.0 | 0.00 | 0.01 | 0.00 | 75 | 1020.2 |
| 20260830180034 | 61 | 199 | 2.0 | 10.0 | 0.00 | 0.01 | 0.00 | 77 | 1020.0 |
| 20260830174538 | 60 | 189 | 5.0 | 10.0 | 0.00 | 0.01 | 0.00 | 77 | 1020.0 |
| 20260830173033 | 61 | 144 | 3.0 | 10.0 | 0.00 | 0.01 | 0.00 | 76 | 1020.0 |
| 20260830171535 | 60 | 309 | 2.0 | 11.0 | 0.00 | 0.01 | 0.00 | 77 | 1019.9 |
| 20260830170029 | 60 | 169 | 3.0 | 9.0 | 0.00 | 0.01 | 0.00 | 77 | 1019.8 |
| 20260830164530 | 60 | 169 | 3.0 | 12.0 | 0.00 | 0.01 | 0.00 | 78 | 1019.9 |
| 20260830163027 | 59 | 184 | 3.0 | 7.0 | 0.00 | 0.01 | 0.00 | 80 | 1019.9 |
| 20260830161522 | 59 | 208 | 3.0 | 8.0 | 0.00 | 0.01 | 0.00 | 80 | 1019.9 |
| 20260830160020 | 59 | 154 | 3.0 | 6.0 | 0.00 | 0.01 | 0.00 | 79 | 1019.9 |
| 20260830154520 | 59 | 174 | 2.0 | 8.0 | 0.00 | 0.01 | 0.00 | 81 | 1019.8 |
| 20260830153017 | 58 | 180 | 3.0 | 7.0 | 0.00 | 0.01 | 0.00 | 80 | 1019.7 |
| 20260830151516 | 58 | 200 | 1.0 | 5.0 | 0.00 | 0.01 | 0.00 | 82 | 1019.6 |
| 20260830150014 | 58 | 179 | 3.0 | 11.0 | 0.00 | 0.01 | 0.00 | 83 | 1019.6 |
| 20260830144514 | 58 | 190 | 2.0 | 9.0 | 0.00 | 0.01 | 0.00 | 82 | 1019.4 |
| 20260830143015 | 58 | 175 | 2.0 | 8.0 | 0.00 | 0.01 | 0.00 | 82 | 1019.5 |
| 20260830141507 | 58 | 192 | 5.0 | 11.0 | 0.00 | 0.01 | 0.00 | 82 | 1019.3 |
| 20260830140008 | 57 | 159 | 1.0 | 8.0 | 0.00 | 0.01 | 0.00 | 82 | 1019.1 |
| 20260830134509 | 57 | 186 | 1.0 | 8.0 | 0.00 | 0.01 | 0.00 | 83 | 1019.0 |
| 20260830133000 | 56 | 197 | 1.0 | 5.0 | 0.00 | 0.01 | 0.00 | 83 | 1018.9 |
| 20260830131600 | 56 | 200 | 2.0 | 8.0 | 0.00 | 0.01 | 0.00 | 83 | 1018.9 |
| 20260830130113 | 55 | 185 | 1.0 | 8.0 | 0.00 | 0.01 | 0.00 | 83 | 1018.9 |
| 20260830124600 | 55 | 196 | 1.0 | 4.0 | 0.00 | 0.02 | 0.00 | 84 | 1018.8 |
| 20260830123100 | 55 | 158 | 0.0 | 4.0 | 0.00 | 0.02 | 0.00 | 83 | 1018.9 |
| 20260830121602 | 55 | 180 | 0.0 | 0.0 | 0.00 | 0.02 | 0.00 | 82 | 1019.0 |
| 20260830120100 | 55 | 180 | 0.0 | 3.0 | 0.00 | 0.02 | 0.00 | 82 | 1019.0 |
| 20260830114600 | 55 | 159 | 0.0 | 1.0 | 0.00 | 0.06 | 0.00 | 81 | 1019.1 |
| 20260830113052 | 56 | 193 | 0.0 | 4.0 | 0.00 | 0.06 | 0.00 | 80 | 1019.1 |
| 20260830111549 | 57 | 148 | 0.0 | 2.0 | 0.00 | 0.06 | 0.00 | 79 | 1019.0 |
| 20260830110057 | 57 | 137 | 0.0 | 3.0 | 0.00 | 0.06 | 0.00 | 78 | 1018.9 |
| 20260830104547 | 57 | 183 | 0.0 | 5.0 | 0.00 | 0.07 | 0.00 | 78 | 1018.9 |
| 20260830103044 | 57 | 242 | 1.0 | 4.0 | 0.00 | 0.07 | 0.00 | 78 | 1018.8 |
| 20260830101544 | 58 | 185 | 0.0 | 2.0 | 0.00 | 0.07 | 0.00 | 78 | 1018.7 |
| 20260830100050 | 58 | 175 | 0.0 | 8.0 | 0.00 | 0.07 | 0.00 | 77 | 1018.6 |
| 20260830094540 | 58 | 166 | 0.0 | 7.0 | 0.00 | 0.08 | 0.00 | 77 | 1018.6 |
| 20260830093039 | 58 | 163 | 3.0 | 6.0 | 0.00 | 0.08 | 0.00 | 77 | 1018.6 |
| 20260830091541 | 58 | 168 | 1.0 | 4.0 | 0.00 | 0.08 | 0.00 | 77 | 1018.7 |
| 20260830090039 | 58 | 169 | 1.0 | 5.0 | 0.00 | 0.08 | 0.00 | 77 | 1018.7 |
| 20260830084611 | 58 | 146 | 1.0 | 6.0 | 0.00 | 0.09 | 0.00 | 77 | 1018.7 |
| 20260830083037 | 58 | 191 | 0.0 | 5.0 | 0.00 | 0.09 | 0.00 | 77 | 1018.6 |
| 20260830081542 | 58 | 178 | 1.0 | 7.0 | 0.00 | 0.09 | 0.00 | 77 | 1018.5 |
| 20260830080033 | 58 | 163 | 2.0 | 6.0 | 0.00 | 0.09 | 0.00 | 76 | 1018.4 |
| 20260830074542 | 58 | 180 | 1.0 | 7.0 | 0.00 | 0.09 | 0.00 | 76 | 1018.3 |
| 20260830073031 | 58 | 140 | 2.0 | 6.0 | 0.00 | 0.09 | 0.00 | 75 | 1018.5 |
| 20260830071529 | 58 | 210 | 2.0 | 7.0 | 0.00 | 0.09 | 0.00 | 73 | 1018.5 |
| 20260830070027 | 58 | 200 | 1.0 | 5.0 | 0.00 | 0.09 | 0.00 | 73 | 1018.4 |
| 20260830064527 | 59 | 157 | 1.0 | 9.0 | 0.00 | 0.09 | 0.09 | 72 | 1018.4 |
| 20260830063025 | 58 | 169 | 0.0 | 4.0 | 0.00 | 0.09 | 0.09 | 73 | 1018.3 |
| 20260830061531 | 58 | 170 | 1.0 | 5.0 | 0.00 | 0.09 | 0.09 | 75 | 1018.1 |
| 20260830060029 | 58 | 158 | 0.0 | 3.0 | 0.00 | 0.09 | 0.09 | 74 | 1018.2 |
| 20260830054524 | 58 | 161 | 3.0 | 8.0 | 0.00 | 0.09 | 0.09 | 75 | 1018.2 |
| 20260830053022 | 59 | 181 | 1.0 | 4.0 | 0.00 | 0.09 | 0.09 | 76 | 1018.2 |
| 20260830051521 | 59 | 217 | 0.0 | 4.0 | 0.00 | 0.09 | 0.09 | 74 | 1018.0 |
| 20260830050028 | 59 | 186 | 1.0 | 5.0 | 0.00 | 0.09 | 0.09 | 75 | 1018.0 |
| 20260830044520 | 58 | 157 | 0.0 | 2.0 | 0.00 | 0.10 | 0.09 | 74 | 1017.8 |
| 20260830043032 | 59 | 191 | 1.0 | 5.0 | 0.00 | 0.10 | 0.09 | 74 | 1017.9 |
| 20260830041517 | 59 | 159 | 2.0 | 11.0 | 0.00 | 0.10 | 0.09 | 74 | 1017.7 |
| 20260830040015 | 59 | 177 | 1.0 | 6.0 | 0.00 | 0.10 | 0.09 | 76 | 1017.7 |
| 20260830034516 | 59 | 169 | 1.0 | 5.0 | 0.00 | 0.10 | 0.09 | 75 | 1017.6 |